Location: Amsterdam
(30.7274°N, 84.4357°W)
Time: 20:53:57
(UTC+00:00)

Tiros 1 despin weight - Pass Details

Date: 25 February 2026
Orbit: 556 x 593 km, 48.2° (Epoch: 7 March)

Event Time Altitude Azimuth Distance (km) Brightness Sun altitude
Rises 17:05:29 0° 242° (WSW) 2,770 ? 48.9°
Reaches altitude 10° 17:07:49 10° 248° (WSW) 1,867 ? 49.1°
Maximum altitude 17:11:57 47° 323° (NW) 752 ? 49.3°
Drops below altitude 10° 17:16:02 10° 38° (NE) 1,852 ? 49.5°
Sets 17:18:21 0° 44° (NE) 2,744 ? 49.6°
